TimeEST,TemperatureF,Dew PointF,Humidity,Sea Level PressureIn,VisibilityMPH,Wind Direction,Wind SpeedMPH,Gust SpeedMPH,PrecipitationIn,Events,Conditions,WindDirDegrees,DateUTC
12:15 AM,25.3,23.9,94,29.71,7.0,South,3.5,-,N/A,,Scattered Clouds,190,2013-02-14 05:15:00
12:35 AM,25.9,23.7,92,29.72,7.0,Calm,Calm,-,N/A,,Scattered Clouds,0,2013-02-14 05:35:00
12:55 AM,28.2,25.7,90,29.72,7.0,Calm,Calm,-,N/A,,Clear,0,2013-02-14 05:55:00
1:15 AM,28.8,25.7,88,29.72,7.0,Calm,Calm,-,N/A,,Clear,0,2013-02-14 06:15:00
1:35 AM,28.2,25.5,90,29.71,7.0,South,3.5,-,N/A,,Clear,190,2013-02-14 06:35:00
1:55 AM,28.0,25.5,90,29.71,7.0,SSW,3.5,-,N/A,,Clear,200,2013-02-14 06:55:00
2:15 AM,28.0,25.5,90,29.72,7.0,SSW,3.5,-,N/A,,Clear,200,2013-02-14 07:15:00
2:35 AM,28.0,25.7,91,29.71,7.0,Calm,Calm,-,N/A,,Clear,0,2013-02-14 07:35:00
2:55 AM,27.7,25.7,92,29.71,5.0,SSW,3.5,-,N/A,,Clear,210,2013-02-14 07:55:00
3:15 AM,28.0,26.1,92,29.71,5.0,SSW,3.5,-,N/A,,Mostly Cloudy,210,2013-02-14 08:15:00
3:35 AM,28.6,26.4,92,29.71,5.0,SSW,3.5,-,N/A,,Mostly Cloudy,200,2013-02-14 08:35:00
3:55 AM,29.7,27.5,92,29.71,5.0,SSW,3.5,-,N/A,,Mostly Cloudy,210,2013-02-14 08:55:00
4:15 AM,30.2,28.0,92,29.71,5.0,SSW,3.5,-,N/A,,Overcast,200,2013-02-14 09:15:00
4:35 AM,30.2,28.0,92,29.71,5.0,SSW,3.5,-,N/A,,Overcast,200,2013-02-14 09:35:00
4:55 AM,30.2,28.2,92,29.70,5.0,SSW,5.8,-,N/A,,Overcast,200,2013-02-14 09:55:00
5:15 AM,30.6,28.4,92,29.70,5.0,South,4.6,-,N/A,,Overcast,190,2013-02-14 10:15:00
5:35 AM,30.7,28.9,93,29.70,5.0,South,5.8,-,N/A,,Overcast,190,2013-02-14 10:35:00
5:55 AM,30.6,28.8,93,29.70,4.0,SSW,5.8,-,N/A,,Overcast,200,2013-02-14 10:55:00
6:15 AM,30.9,29.1,93,29.70,5.0,South,4.6,-,N/A,,Overcast,190,2013-02-14 11:15:00
6:35 AM,31.3,29.3,92,29.69,5.0,South,4.6,-,N/A,,Overcast,190,2013-02-14 11:35:00
6:55 AM,31.5,29.7,93,29.69,5.0,South,5.8,-,N/A,,Overcast,190,2013-02-14 11:55:00
7:15 AM,32.0,30.2,93,29.69,5.0,SSW,5.8,-,N/A,,Overcast,200,2013-02-14 12:15:00
7:35 AM,32.0,30.2,93,29.69,4.0,South,5.8,-,N/A,,Overcast,190,2013-02-14 12:35:00
7:55 AM,32.0,30.6,94,29.69,3.0,South,6.9,-,N/A,,Overcast,180,2013-02-14 12:55:00
8:15 AM,32.0,30.7,95,29.69,4.0,South,8.1,-,N/A,,Overcast,170,2013-02-14 13:15:00
8:35 AM,32.9,31.1,93,29.69,4.0,South,9.2,-,N/A,,Overcast,180,2013-02-14 13:35:00
8:55 AM,33.1,31.5,94,29.69,4.0,South,9.2,-,N/A,Rain,Light Rain,180,2013-02-14 13:55:00
9:15 AM,33.8,31.5,91,29.67,5.0,South,8.1,-,N/A,,Overcast,170,2013-02-14 14:15:00
9:35 AM,34.7,32.0,90,29.66,5.0,SSE,8.1,-,N/A,,Overcast,160,2013-02-14 14:35:00
9:55 AM,35.6,32.0,87,29.65,7.0,SSE,9.2,-,N/A,,Overcast,160,2013-02-14 14:55:00
10:15 AM,36.5,32.0,84,29.64,7.0,South,10.4,16.1,N/A,,Mostly Cloudy,170,2013-02-14 15:15:00
10:35 AM,37.8,32.0,80,29.64,10.0,South,13.8,-,N/A,,Overcast,180,2013-02-14 15:35:00
10:55 AM,40.1,33.4,77,29.63,10.0,South,15.0,19.6,N/A,,Mostly Cloudy,180,2013-02-14 15:55:00
11:15 AM,40.3,32.7,74,29.64,10.0,South,15.0,20.7,N/A,,Mostly Cloudy,190,2013-02-14 16:15:00
11:35 AM,40.1,32.4,74,29.64,10.0,SSW,18.4,26.5,N/A,,Overcast,210,2013-02-14 16:35:00
11:55 AM,40.1,32.7,75,29.64,10.0,South,16.1,23.0,N/A,,Overcast,190,2013-02-14 16:55:00
12:15 PM,39.2,32.5,77,29.64,10.0,SW,13.8,20.7,N/A,,Overcast,220,2013-02-14 17:15:00
12:35 PM,38.5,32.2,78,29.64,10.0,SSW,17.3,-,N/A,,Overcast,210,2013-02-14 17:35:00
12:55 PM,37.9,32.4,80,29.64,10.0,SW,13.8,23.0,N/A,,Overcast,220,2013-02-14 17:55:00
1:15 PM,38.5,32.5,79,29.63,10.0,SSW,12.7,20.7,N/A,,Overcast,200,2013-02-14 18:15:00
1:35 PM,39.2,32.4,76,29.62,10.0,SSW,15.0,20.7,N/A,,Overcast,210,2013-02-14 18:35:00
1:55 PM,39.2,32.2,76,29.62,10.0,SW,12.7,21.9,N/A,,Overcast,220,2013-02-14 18:55:00
2:15 PM,38.8,32.0,76,29.62,10.0,SW,12.7,-,N/A,,Overcast,230,2013-02-14 19:15:00
2:35 PM,38.5,32.0,78,29.62,10.0,SW,11.5,21.9,N/A,,Overcast,220,2013-02-14 19:35:00
2:55 PM,38.5,31.8,77,29.62,10.0,SW,12.7,20.7,N/A,,Overcast,220,2013-02-14 19:55:00
3:15 PM,37.9,32.0,79,29.63,7.0,WSW,13.8,20.7,N/A,,Overcast,240,2013-02-14 20:15:00
3:35 PM,36.3,32.0,84,29.64,7.0,WSW,11.5,20.7,N/A,,Drizzle,240,2013-02-14 20:35:00
3:55 PM,36.5,33.1,87,29.64,7.0,SW,11.5,18.4,N/A,Rain,Light Rain,230,2013-02-14 20:55:00
4:15 PM,36.5,32.2,84,29.65,10.0,SW,15.0,21.9,N/A,Rain,Light Rain,230,2013-02-14 21:15:00
4:35 PM,36.5,32.0,84,29.66,10.0,SW,15.0,21.9,N/A,,Overcast,230,2013-02-14 21:35:00
4:55 PM,35.8,32.0,86,29.66,10.0,SW,12.7,21.9,N/A,,Overcast,230,2013-02-14 21:55:00
5:15 PM,35.6,32.0,87,29.67,10.0,WSW,13.8,24.2,N/A,,Overcast,240,2013-02-14 22:15:00
5:35 PM,35.8,31.8,86,29.68,10.0,SW,12.7,21.9,N/A,,Overcast,230,2013-02-14 22:35:00
5:55 PM,36.0,31.6,84,29.69,10.0,WSW,11.5,26.5,N/A,,Overcast,240,2013-02-14 22:55:00
6:15 PM,35.6,31.1,84,29.70,10.0,WSW,20.7,32.2,N/A,,Overcast,240,2013-02-14 23:15:00
6:35 PM,34.7,31.8,89,29.71,7.0,WSW,19.6,32.2,N/A,,Overcast,250,2013-02-14 23:35:00
6:55 PM,34.0,32.0,92,29.72,5.0,WSW,17.3,26.5,N/A,,Light Drizzle,250,2013-02-14 23:55:00
7:15 PM,33.3,31.1,92,29.74,5.0,West,17.3,29.9,N/A,,Overcast,260,2013-02-15 00:15:00
7:35 PM,32.5,31.1,94,29.75,4.0,WSW,16.1,21.9,N/A,,Overcast,250,2013-02-15 00:35:00
7:55 PM,32.5,30.0,90,29.76,10.0,WSW,16.1,25.3,N/A,,Overcast,250,2013-02-15 00:55:00
8:15 PM,32.9,29.3,87,29.77,10.0,WSW,16.1,24.2,N/A,,Overcast,250,2013-02-15 01:15:00
8:35 PM,32.9,29.3,87,29.78,10.0,WSW,17.3,26.5,N/A,,Overcast,250,2013-02-15 01:35:00
8:55 PM,32.7,29.5,88,29.78,7.0,WSW,13.8,20.7,N/A,,Overcast,250,2013-02-15 01:55:00
9:15 PM,32.5,29.5,88,29.79,7.0,West,15.0,27.6,N/A,,Overcast,260,2013-02-15 02:15:00
9:35 PM,32.5,29.3,88,29.80,7.0,West,12.7,21.9,N/A,,Overcast,260,2013-02-15 02:35:00
9:55 PM,32.4,29.3,88,29.81,7.0,West,12.7,21.9,N/A,,Overcast,270,2013-02-15 02:55:00
10:15 PM,32.2,29.3,89,29.81,10.0,West,10.4,18.4,N/A,Rain,Light Rain,270,2013-02-15 03:15:00
10:35 PM,32.0,29.8,92,29.82,7.0,West,11.5,16.1,N/A,Rain,Light Rain,270,2013-02-15 03:35:00
10:55 PM,32.0,28.4,87,29.83,10.0,West,11.5,20.7,N/A,Rain,Light Rain,280,2013-02-15 03:55:00
11:15 PM,31.1,28.0,88,29.84,10.0,West,10.4,-,N/A,Rain,Freezing Rain,270,2013-02-15 04:15:00
11:35 PM,31.1,27.9,88,29.85,10.0,WNW,5.8,-,N/A,,Overcast,300,2013-02-15 04:35:00
11:55 PM,29.7,25.9,86,29.86,10.0,West,6.9,-,N/A,,Mostly Cloudy,270,2013-02-15 04:55:00